Track STARLINK-1781 now! 10-day predictions STARLINK-1781 is classified as:
1 46685U 20073R 24325.13754959 .00013948 00000-0 95325-3 0 9992 2 46685 53.0541 227.2327 0002167 110.5988 249.5234 15.06405571225868